Home   Weather   Boulder   Past weeks
Flag for USA

Past Weather in Boulder, Colorado, USA — Yesterday and Last 2 Weeks

Now
36 °F

Overcast.


Feels Like: 31 °F
Forecast: 57 / 35 °F
Wind: 6 mph from East

Location: Broomfield / Jeffco

Current Time: Mar 23, 2019 at 5:52:47 am

Latest Report: Mar 23, 2019 at 5:12 am


Visibility: 10 mi

Pressure: 29.88 "Hg (24.43 "Hg at 1623m altitude)

Humidity: 100%

Dew Point: 36 °F

Location of BoulderLocation

Past Weather in Boulder — Graph

°F

Boulder Temperature Yesterday

Maximum temperature yesterday: 55 °F (at 2:52 pm)
Minimum temperature yesterday: 37 °F (at 4:53 am)
Average temperature yesterday: 42 °F

High & Low Weather Summary for the Past Weeks

 TemperatureHumidityPressure
High59 °F (Mar 21, 1:47 pm)100% (Mar 13, 6:28 am)30.35 "Hg (Mar 13, 6:28 am)
Low18 °F (Mar 15, 6:46 am)10% (Mar 20, 11:45 am)29.04 "Hg (Mar 13, 8:57 am)
Average37 °F60%30.01 "Hg
* Reported Mar 8 3:11 am — Mar 23 4:30 am, Boulder. Weather by CustomWeather, © 2019

Note: Actual official high and low records may vary slightly from our data, if they occured in-between our weather recording intervals... More about our weather records

Advertising

Boulder Weather History for the Previous 24 Hours

Scroll right to see more
 ConditionsComfort  
Time TempWeatherWind HumidityBarometerVisibility
4:30 am
Sat, Mar 23
37 °FOvercast.6 mph93%29.87 "Hg10 mi
4:12 am37 °FOvercast.6 mph93%29.87 "Hg10 mi
3:54 am37 °FOvercast.5 mph93%29.86 "Hg7 mi
3:30 am37 °FOvercast.7 mph93%29.87 "Hg7 mi
3:12 am37 °FOvercast.5 mph93%29.88 "Hg10 mi
2:54 am37 °FOvercast.5 mph93%29.89 "Hg10 mi
2:30 am37 °FOvercast.6 mph93%29.90 "Hg10 mi
2:12 am37 °FOvercast.5 mph93%29.91 "Hg10 mi
1:54 am37 °FOvercast.5 mph93%29.91 "Hg10 mi
1:12 am37 °FMostly cloudy.5 mph93%29.92 "Hg10 mi
12:54 am37 °FOvercast.3 mph93%29.92 "Hg10 mi
12:30 am37 °FOvercast.No wind93%29.93 "Hg10 mi
12:12 am37 °FOvercast.3 mph93%29.93 "Hg10 mi
11:54 pm
Fri, Mar 22
37 °FOvercast.No wind93%29.93 "Hg10 mi
11:30 pm37 °FOvercast.No wind93%29.95 "Hg10 mi
11:12 pm37 °FOvercast.No wind93%29.95 "Hg10 mi
10:52 pm37 °FMostly cloudy.No wind93%29.95 "Hg10 mi
10:35 pm37 °FMostly cloudy.No wind93%29.95 "Hg10 mi
10:11 pm37 °FMostly cloudy.6 mph93%29.94 "Hg10 mi
9:47 pm39 °FMostly cloudy.10 mph87%29.94 "Hg15 mi
9:21 pm39 °FScattered showers. Mostly cloudy.3 mph87%29.95 "Hg15 mi
8:53 pm39 °FLight rain. Overcast.9 mph93%29.96 "Hg15 mi
7:47 pm43 °FScattered showers. Overcast.15 mph81%29.92 "Hg10 mi
6:47 pm45 °FScattered showers. Mostly cloudy.18 mph61%29.86 "Hg15 mi
5:47 pm46 °FScattered showers. Mostly cloudy.26 mph57%29.87 "Hg15 mi
5:34 pm46 °FScattered showers. Mostly cloudy.28 mph57%29.88 "Hg15 mi
4:59 pm50 °FScattered showers. Broken clouds.9 mph47%29.86 "Hg10 mi
3:52 pm54 °FScattered showers. Broken clouds.10 mph38%29.86 "Hg12 mi
2:52 pm55 °FBroken clouds.12 mph38%29.87 "Hg12 mi
1:52 pm54 °FScattered clouds.12 mph41%29.89 "Hg10 mi
12:45 pm54 °FScattered clouds.10 mph41%29.92 "Hg10 mi
11:45 am50 °FScattered clouds.8 mph43%29.95 "Hg10 mi
10:45 am46 °FBroken clouds.7 mph50%29.96 "Hg10 mi
9:45 am41 °FOvercast.12 mph57%29.97 "Hg10 mi
8:45 am41 °FOvercast.12 mph57%29.99 "Hg10 mi
7:45 am39 °FBroken clouds.No wind61%29.99 "Hg10 mi
6:45 am39 °FPartly cloudy.8 mph56%29.97 "Hg10 mi
5:54 am37 °FPartly cloudy.6 mph60%29.98 "Hg10 mi
5:36 am37 °FPassing clouds.No wind56%29.98 "Hg10 mi
5:12 am37 °FClear.7 mph56%29.97 "Hg10 mi
Weather by CustomWeather, © 2019

See weather overview